When you browse on this site, cookies collect data to enhance your experience and personalize the content and advertising you see.
Visit our Privacy Policy to learn more. By continuing to use the site, you agree to this use of cookies and data.

Hourly Weather Saurimo

Today, 4 August, Tuesday

Time Temperature Precipitation Wind Pressure Humidity
00:00 +18°C° 0 mm 2 mps 671 mmHg 34%
01:00 +17°C° 0 mm 2 mps 671 mmHg 39%
02:00 +17°C° 0 mm 2 mps 671 mmHg 38%
03:00 +17°C° 0 mm 2 mps 671 mmHg 38%
04:00 +16°C° 0 mm 3 mps 671 mmHg 37%
05:00 +17°C° 0 mm 3 mps 672 mmHg 36%
06:00 +17°C° 0 mm 3 mps 672 mmHg 34%
07:00 +18°C° 0 mm 3 mps 673 mmHg 33%
08:00 +22°C° 0 mm 3 mps 673 mmHg 28%
09:00 +26°C° 0 mm 3 mps 674 mmHg 23%
10:00 +30°C° 0 mm 3 mps 675 mmHg 18%
11:00 +34°C° 0 mm 2 mps 674 mmHg 16%
12:00 +36°C° 0 mm 1 mps 674 mmHg 14%
13:00 +37°C° 0 mm 1 mps 674 mmHg 13%
14:00 +36°C° 0 mm 1 mps 673 mmHg 13%
15:00 +35°C° 0 mm 1 mps 672 mmHg 14%
16:00 +34°C° 0 mm 1 mps 672 mmHg 14%
17:00 +28°C° 0 mm 0 mps 671 mmHg 17%
18:00 +25°C° 0 mm 0 mps 671 mmHg 21%
19:00 +22°C° 0 mm 0 mps 670 mmHg 24%
20:00 +23°C° 0 mm 1 mps 671 mmHg 26%
21:00 +22°C° 0 mm 1 mps 671 mmHg 28%
22:00 +21°C° 0 mm 1 mps 671 mmHg 29%
23:00 +20°C° 0 mm 1 mps 671 mmHg 31%

Tomorrow, 5 August, Wednesday

Time Temperature Precipitation Wind Pressure Humidity
00:00 +20°C° 0 mm 1 mps 671 mmHg 33%
01:00 +19°C° 0 mm 1 mps 670 mmHg 34%
02:00 +19°C° 0 mm 1 mps 670 mmHg 35%
03:00 +18°C° 0 mm 1 mps 670 mmHg 37%
04:00 +18°C° 0 mm 1 mps 670 mmHg 38%
05:00 +18°C° 0 mm 1 mps 671 mmHg 37%
06:00 +19°C° 0 mm 1 mps 672 mmHg 36%
07:00 +19°C° 0 mm 1 mps 672 mmHg 35%
08:00 +23°C° 0 mm 2 mps 673 mmHg 29%
09:00 +27°C° 0 mm 2 mps 674 mmHg 23%
10:00 +31°C° 0 mm 2 mps 674 mmHg 17%
11:00 +35°C° 0 mm 2 mps 674 mmHg 15%
12:00 +36°C° 0 mm 1 mps 674 mmHg 13%
13:00 +40°C° 0 mm 1 mps 674 mmHg 11%
14:00 +39°C° 0 mm 1 mps 673 mmHg 11%
15:00 +37°C° 0 mm 1 mps 672 mmHg 11%
16:00 +34°C° 0 mm 0 mps 671 mmHg 11%
17:00 +32°C° 0 mm 1 mps 671 mmHg 15%
18:00 +29°C° 0 mm 1 mps 671 mmHg 18%
19:00 +25°C° 0 mm 1 mps 670 mmHg 21%
20:00 +24°C° 0 mm 1 mps 670 mmHg 22%
21:00 +23°C° 0 mm 1 mps 671 mmHg 23%
22:00 +22°C° 0 mm 1 mps 671 mmHg 23%
23:00 +21°C° 0 mm 1 mps 670 mmHg 25%

Day after tomorrow, 6 August, Thursday

Time Temperature Precipitation Wind Pressure Humidity
00:00 +18°C° 0 mm 0 mps 670 mmHg 26%
01:00 +17°C° 0 mm 0 mps 670 mmHg 27%
02:00 +19°C° 0 mm 1 mps 670 mmHg 27%
03:00 +18°C° 0 mm 1 mps 669 mmHg 28%
04:00 +18°C° 0 mm 1 mps 669 mmHg 28%
05:00 +18°C° 0 mm 1 mps 670 mmHg 27%
06:00 +18°C° 0 mm 2 mps 671 mmHg 25%
07:00 +19°C° 0 mm 2 mps 671 mmHg 24%
08:00 +24°C° 0 mm 2 mps 672 mmHg 19%
09:00 +28°C° 0 mm 3 mps 673 mmHg 15%
10:00 +33°C° 0 mm 3 mps 674 mmHg 10%
11:00 +35°C° 0 mm 3 mps 673 mmHg 10%
12:00 +36°C° 0 mm 3 mps 673 mmHg 9%
13:00 +38°C° 0 mm 2 mps 672 mmHg 8%
14:00 +38°C° 0 mm 2 mps 672 mmHg 8%
15:00 +37°C° 0 mm 2 mps 671 mmHg 8%
16:00 +37°C° 0 mm 2 mps 671 mmHg 8%
17:00 +34°C° 0 mm 2 mps 670 mmHg 10%
18:00 +29°C° 0 mm 2 mps 670 mmHg 12%
19:00 +26°C° 0 mm 1 mps 670 mmHg 14%
20:00 +25°C° 0 mm 1 mps 670 mmHg 15%
21:00 +23°C° 0 mm 2 mps 670 mmHg 15%
22:00 +21°C° 0 mm 2 mps 670 mmHg 16%
23:00 +20°C° 0 mm 2 mps 670 mmHg 16%

7 August, Friday

Time Temperature Precipitation Wind Pressure Humidity
00:00 +20°C° 0 mm 2 mps 670 mmHg 16%
01:00 +19°C° 0 mm 2 mps 670 mmHg 16%
02:00 +19°C° 0 mm 2 mps 670 mmHg 17%
03:00 +19°C° 0 mm 2 mps 670 mmHg 17%
04:00 +18°C° 0 mm 2 mps 670 mmHg 18%
05:00 +18°C° 0 mm 2 mps 670 mmHg 18%
06:00 +19°C° 0 mm 2 mps 671 mmHg 19%
07:00 +19°C° 0 mm 2 mps 672 mmHg 19%
08:00 +24°C° 0 mm 3 mps 673 mmHg 16%
09:00 +29°C° 0 mm 3 mps 673 mmHg 13%
10:00 +34°C° 0 mm 4 mps 674 mmHg 10%
11:00 +36°C° 0 mm 4 mps 674 mmHg 9%
12:00 +37°C° 0 mm 3 mps 673 mmHg 8%
13:00 +39°C° 0 mm 2 mps 672 mmHg 7%
14:00 +38°C° 0 mm 2 mps 672 mmHg 7%
15:00 +38°C° 0 mm 2 mps 671 mmHg 8%
16:00 +37°C° 0 mm 2 mps 671 mmHg 8%
17:00 +34°C° 0 mm 2 mps 671 mmHg 11%
18:00 +30°C° 0 mm 2 mps 670 mmHg 13%
19:00 +26°C° 0 mm 1 mps 670 mmHg 16%
20:00 +25°C° 0 mm 2 mps 670 mmHg 16%
21:00 +24°C° 0 mm 2 mps 671 mmHg 17%
22:00 +23°C° 0 mm 2 mps 671 mmHg 18%
23:00 +21°C° 0 mm 2 mps 671 mmHg 18%

8 August, Saturday

Time Temperature Precipitation Wind Pressure Humidity
00:00 +21°C° 0 mm 1 mps 670 mmHg 19%
01:00 +21°C° 0 mm 1 mps 670 mmHg 20%
02:00 +20°C° 0 mm 1 mps 670 mmHg 22%
03:00 +19°C° 0 mm 1 mps 670 mmHg 23%
04:00 +18°C° 0 mm 1 mps 670 mmHg 24%
05:00 +19°C° 0 mm 1 mps 671 mmHg 24%
06:00 +20°C° 0 mm 1 mps 671 mmHg 24%
07:00 +19°C° 0 mm 2 mps 672 mmHg 24%
08:00 +24°C° 0 mm 2 mps 673 mmHg 21%
09:00 +28°C° 0 mm 3 mps 673 mmHg 18%
10:00 +33°C° 0 mm 3 mps 674 mmHg 15%
11:00 +34°C° 0 mm 3 mps 673 mmHg 15%
12:00 +36°C° 0 mm 2 mps 673 mmHg 15%
13:00 +38°C° 0 mm 2 mps 672 mmHg 14%
14:00 +37°C° 0 mm 2 mps 672 mmHg 15%
15:00 +37°C° 0 mm 2 mps 671 mmHg 15%
16:00 +35°C° 0 mm 1 mps 671 mmHg 16%
17:00 +33°C° 0 mm 1 mps 671 mmHg 20%
18:00 +30°C° 0 mm 1 mps 671 mmHg 24%
19:00 +28°C° 0 mm 2 mps 671 mmHg 29%
20:00 +27°C° 0 mm 1 mps 671 mmHg 30%
21:00 +26°C° 0 mm 1 mps 671 mmHg 31%
22:00 +26°C° 0 mm 1 mps 671 mmHg 32%
23:00 +25°C° 0 mm 1 mps 671 mmHg 33%

9 August, Sunday

Time Temperature Precipitation Wind Pressure Humidity
00:00 +25°C° 0 mm 1 mps 671 mmHg 33%
01:00 +24°C° 0 mm 1 mps 670 mmHg 34%
02:00 +24°C° 0 mm 1 mps 670 mmHg 34%
03:00 +23°C° 0 mm 1 mps 670 mmHg 34%
04:00 +23°C° 0 mm 1 mps 670 mmHg 34%
05:00 +23°C° 0 mm 1 mps 671 mmHg 33%
06:00 +23°C° 0 mm 1 mps 671 mmHg 32%
07:00 +24°C° 0 mm 1 mps 672 mmHg 31%
08:00 +27°C° 0 mm 2 mps 672 mmHg 27%
09:00 +30°C° 0 mm 3 mps 673 mmHg 23%
10:00 +34°C° 0 mm 4 mps 673 mmHg 19%
11:00 +35°C° 0 mm 3 mps 673 mmHg 18%
12:00 +37°C° 0 mm 3 mps 672 mmHg 16%
13:00 +38°C° 0 mm 2 mps 672 mmHg 15%
14:00 +38°C° 0 mm 2 mps 671 mmHg 15%
15:00 +37°C° 0 mm 2 mps 670 mmHg 15%
16:00 +37°C° 0 mm 2 mps 670 mmHg 15%
17:00 +33°C° 0 mm 1 mps 670 mmHg 18%
18:00 +30°C° 0 mm 1 mps 669 mmHg 21%
19:00 +25°C° 0 mm 0 mps 669 mmHg 24%
20:00 +26°C° 0 mm 1 mps 669 mmHg 26%
21:00 +25°C° 0 mm 1 mps 670 mmHg 27%
22:00 +24°C° 0 mm 1 mps 670 mmHg 29%
23:00 +23°C° 0 mm 1 mps 669 mmHg 30%
Show more